Year,Month,Day,Hour,Minute,Value (Times are PST for temperature in C)
2019,02,17,00,00,2.40
2019,02,17,00,01,2.40
2019,02,17,00,02,2.40
2019,02,17,00,03,2.40
2019,02,17,00,04,2.40
2019,02,17,00,05,2.40
2019,02,17,00,06,2.40
2019,02,17,00,07,2.30
2019,02,17,00,08,2.30
2019,02,17,00,09,2.40
2019,02,17,00,10,2.30
2019,02,17,00,11,2.30
2019,02,17,00,12,2.30
2019,02,17,00,13,2.30
2019,02,17,00,14,2.30
2019,02,17,00,15,2.30
2019,02,17,00,16,2.30
2019,02,17,00,17,2.30
2019,02,17,00,18,2.30
2019,02,17,00,19,2.20
2019,02,17,00,20,2.20
2019,02,17,00,21,2.20
2019,02,17,00,22,2.10
2019,02,17,00,23,2.10
2019,02,17,00,24,2.10
2019,02,17,00,25,2.00
2019,02,17,00,26,2.00
2019,02,17,00,27,2.00
2019,02,17,00,28,2.00
2019,02,17,00,29,1.90
2019,02,17,00,30,1.90
2019,02,17,00,31,1.90
2019,02,17,00,32,1.90
2019,02,17,00,33,1.90
2019,02,17,00,34,1.90
2019,02,17,00,35,1.90
2019,02,17,00,36,1.90
2019,02,17,00,37,1.90
2019,02,17,00,38,1.90
2019,02,17,00,39,1.90
2019,02,17,00,40,1.80
2019,02,17,00,41,1.80
2019,02,17,00,42,1.80
2019,02,17,00,43,1.90
2019,02,17,00,44,1.90
2019,02,17,00,45,1.90
2019,02,17,00,46,1.90
2019,02,17,00,47,1.90
2019,02,17,00,48,1.90
2019,02,17,00,49,1.90
2019,02,17,00,50,1.90
2019,02,17,00,51,1.90
2019,02,17,00,52,1.90
2019,02,17,00,53,1.90
2019,02,17,00,54,1.90
2019,02,17,00,55,1.90
2019,02,17,00,56,1.90
2019,02,17,00,57,1.90
2019,02,17,00,58,1.90
2019,02,17,00,59,1.90
2019,02,17,01,00,1.90
2019,02,17,01,01,1.90
2019,02,17,01,02,1.90
2019,02,17,01,03,1.90
2019,02,17,01,04,1.90
2019,02,17,01,05,1.90
2019,02,17,01,06,1.90
2019,02,17,01,07,1.80
2019,02,17,01,08,1.90
2019,02,17,01,09,1.90
2019,02,17,01,10,1.90
2019,02,17,01,11,1.90
2019,02,17,01,12,1.90
2019,02,17,01,13,1.80
2019,02,17,01,14,1.80
2019,02,17,01,15,1.80
2019,02,17,01,16,1.90
2019,02,17,01,17,1.80
2019,02,17,01,18,1.80
2019,02,17,01,19,1.80
2019,02,17,01,20,1.80
2019,02,17,01,21,1.80
2019,02,17,01,22,1.80
2019,02,17,01,23,1.80
2019,02,17,01,24,1.80
2019,02,17,01,25,1.80
2019,02,17,01,26,1.80
2019,02,17,01,27,1.80
2019,02,17,01,28,1.80
2019,02,17,01,29,1.80
2019,02,17,01,30,1.70
2019,02,17,01,31,1.70
2019,02,17,01,32,1.70
2019,02,17,01,33,1.70
2019,02,17,01,34,1.70
2019,02,17,01,35,1.70
2019,02,17,01,36,1.70
2019,02,17,01,37,1.70
2019,02,17,01,38,1.70
2019,02,17,01,39,1.70
2019,02,17,01,40,1.70
2019,02,17,01,41,1.70
2019,02,17,01,42,1.70
2019,02,17,01,43,1.70
2019,02,17,01,44,1.70
2019,02,17,01,45,1.60
2019,02,17,01,46,1.60
2019,02,17,01,47,1.60
2019,02,17,01,48,1.60
2019,02,17,01,49,1.60
2019,02,17,01,50,1.60
2019,02,17,01,51,1.60
2019,02,17,01,52,1.60
2019,02,17,01,53,1.70
2019,02,17,01,54,1.70
2019,02,17,01,55,1.70
2019,02,17,01,56,1.70
2019,02,17,01,57,1.70
2019,02,17,01,58,1.70
2019,02,17,01,59,1.70
2019,02,17,02,00,1.70
2019,02,17,02,01,1.70
2019,02,17,02,02,1.80
2019,02,17,02,03,1.80
2019,02,17,02,04,1.80
2019,02,17,02,05,1.80
2019,02,17,02,06,1.80
2019,02,17,02,07,1.80
2019,02,17,02,08,1.80
2019,02,17,02,09,1.80
2019,02,17,02,10,1.80
2019,02,17,02,11,1.80
2019,02,17,02,12,1.80
2019,02,17,02,13,1.70
2019,02,17,02,14,1.70
2019,02,17,02,15,1.70
2019,02,17,02,16,1.70
2019,02,17,02,17,1.70
2019,02,17,02,18,1.70
2019,02,17,02,19,1.70
2019,02,17,02,20,1.60
2019,02,17,02,21,1.60
2019,02,17,02,22,1.60
2019,02,17,02,23,1.60
2019,02,17,02,24,1.60
2019,02,17,02,25,1.60
2019,02,17,02,26,1.50
2019,02,17,02,27,1.50
2019,02,17,02,28,1.50
2019,02,17,02,29,1.50
2019,02,17,02,30,1.50
2019,02,17,02,31,1.50
2019,02,17,02,32,1.50
2019,02,17,02,33,1.50
2019,02,17,02,34,1.50
2019,02,17,02,35,1.50
2019,02,17,02,36,1.50
2019,02,17,02,37,1.50
2019,02,17,02,38,1.50
2019,02,17,02,39,1.60
2019,02,17,02,40,1.60
2019,02,17,02,41,1.60
2019,02,17,02,42,1.60
2019,02,17,02,43,1.60
2019,02,17,02,44,1.60
2019,02,17,02,45,1.60
2019,02,17,02,46,1.60
2019,02,17,02,47,1.60
2019,02,17,02,48,1.60
2019,02,17,02,49,1.60
2019,02,17,02,50,1.60
2019,02,17,02,51,1.60
2019,02,17,02,52,1.60
2019,02,17,02,53,1.60
2019,02,17,02,54,1.60
2019,02,17,02,55,1.60
2019,02,17,02,56,1.60
2019,02,17,02,57,1.60
2019,02,17,02,58,1.60
2019,02,17,02,59,1.60
2019,02,17,03,00,1.60
2019,02,17,03,01,1.60
2019,02,17,03,02,1.60
2019,02,17,03,03,1.60
2019,02,17,03,04,1.60
2019,02,17,03,05,1.60
2019,02,17,03,06,1.50
2019,02,17,03,07,1.50
2019,02,17,03,08,1.50
2019,02,17,03,09,1.50
2019,02,17,03,10,1.50
2019,02,17,03,11,1.50
2019,02,17,03,12,1.50
2019,02,17,03,13,1.40
2019,02,17,03,14,1.40
2019,02,17,03,15,1.40
2019,02,17,03,16,1.40
2019,02,17,03,17,1.40
2019,02,17,03,18,1.40
2019,02,17,03,19,1.40
2019,02,17,03,20,1.30
2019,02,17,03,21,1.30
2019,02,17,03,22,1.30
2019,02,17,03,23,1.30
2019,02,17,03,24,1.30
2019,02,17,03,25,1.30
2019,02,17,03,26,1.30
2019,02,17,03,27,1.30
2019,02,17,03,28,1.30
2019,02,17,03,29,1.30
2019,02,17,03,30,1.30
2019,02,17,03,31,1.30
2019,02,17,03,32,1.30
2019,02,17,03,33,1.30
2019,02,17,03,34,1.30
2019,02,17,03,35,1.30
2019,02,17,03,36,1.30
2019,02,17,03,37,1.30
2019,02,17,03,38,1.30
2019,02,17,03,39,1.30
2019,02,17,03,40,1.30
2019,02,17,03,41,1.20
2019,02,17,03,42,1.20
2019,02,17,03,43,1.30
2019,02,17,03,44,1.30
2019,02,17,03,45,1.30
2019,02,17,03,46,1.30
2019,02,17,03,47,1.30
2019,02,17,03,48,1.30
2019,02,17,03,49,1.30
2019,02,17,03,50,1.30
2019,02,17,03,51,1.30
2019,02,17,03,52,1.30
2019,02,17,03,53,1.30
2019,02,17,03,54,1.30
2019,02,17,03,55,1.20
2019,02,17,03,56,1.20
2019,02,17,03,57,1.20
2019,02,17,03,58,1.20
2019,02,17,03,59,1.20
2019,02,17,04,00,1.20
2019,02,17,04,01,1.20
2019,02,17,04,02,1.20
2019,02,17,04,03,1.20
2019,02,17,04,04,1.20
2019,02,17,04,05,1.20
2019,02,17,04,06,1.20
2019,02,17,04,07,1.20
2019,02,17,04,08,1.20
2019,02,17,04,09,1.20
2019,02,17,04,10,1.10
2019,02,17,04,11,1.00
2019,02,17,04,12,0.90
2019,02,17,04,13,0.90
2019,02,17,04,14,0.80
2019,02,17,04,15,0.80
2019,02,17,04,16,0.70
2019,02,17,04,17,0.70
2019,02,17,04,18,0.70
2019,02,17,04,19,0.60
2019,02,17,04,20,0.60
2019,02,17,04,21,0.60
2019,02,17,04,22,0.50
2019,02,17,04,23,0.50
2019,02,17,04,24,0.40
2019,02,17,04,25,0.30
2019,02,17,04,26,0.30
2019,02,17,04,27,0.20
2019,02,17,04,28,0.20
2019,02,17,04,29,0.10
2019,02,17,04,30,0.10
2019,02,17,04,31,0.00
2019,02,17,04,32,0.00
2019,02,17,04,33,0.00
2019,02,17,04,34,0.00
2019,02,17,04,35,-0.10
2019,02,17,04,36,-0.10
2019,02,17,04,37,0.00
2019,02,17,04,38,0.00
2019,02,17,04,39,0.00
2019,02,17,04,40,0.00
2019,02,17,04,41,0.10
2019,02,17,04,42,0.10
2019,02,17,04,43,0.10
2019,02,17,04,44,0.20
2019,02,17,04,45,0.20
2019,02,17,04,46,0.20
2019,02,17,04,47,0.20
2019,02,17,04,48,0.20
2019,02,17,04,49,0.20
2019,02,17,04,50,0.20
2019,02,17,04,51,0.30
2019,02,17,04,52,0.30
2019,02,17,04,53,0.30
2019,02,17,04,54,0.20
2019,02,17,04,55,0.20
2019,02,17,04,56,0.20
2019,02,17,04,57,0.20
2019,02,17,04,58,0.20
2019,02,17,04,59,0.20
2019,02,17,05,00,0.10
2019,02,17,05,01,0.10
2019,02,17,05,02,0.10
2019,02,17,05,03,0.10
2019,02,17,05,04,0.10
2019,02,17,05,05,0.10
2019,02,17,05,06,0.10
2019,02,17,05,07,0.10
2019,02,17,05,08,0.10
2019,02,17,05,09,0.10
2019,02,17,05,10,0.10
2019,02,17,05,11,0.20
2019,02,17,05,12,0.10
2019,02,17,05,13,0.10
2019,02,17,05,14,0.10
2019,02,17,05,15,0.20
2019,02,17,05,16,0.20
2019,02,17,05,17,0.20
2019,02,17,05,18,0.20
2019,02,17,05,19,0.20
2019,02,17,05,20,0.20
2019,02,17,05,21,0.20
2019,02,17,05,22,0.20
2019,02,17,05,23,0.20
2019,02,17,05,24,0.20
2019,02,17,05,25,0.20
2019,02,17,05,26,0.20
2019,02,17,05,27,0.20
2019,02,17,05,28,0.20
2019,02,17,05,29,0.20
2019,02,17,05,30,0.20
2019,02,17,05,31,0.20
2019,02,17,05,32,0.20
2019,02,17,05,33,0.20
2019,02,17,05,34,0.30
2019,02,17,05,35,0.30
2019,02,17,05,36,0.30
2019,02,17,05,37,0.30
2019,02,17,05,38,0.30
2019,02,17,05,39,0.30
2019,02,17,05,40,0.30
2019,02,17,05,41,0.30
2019,02,17,05,42,0.30
2019,02,17,05,43,0.30
2019,02,17,05,44,0.30
2019,02,17,05,45,0.30
2019,02,17,05,46,0.30
2019,02,17,05,47,0.30
2019,02,17,05,48,0.30
2019,02,17,05,49,0.30
2019,02,17,05,50,0.30
2019,02,17,05,51,0.40
2019,02,17,05,52,0.40
2019,02,17,05,53,0.40
2019,02,17,05,54,0.40
2019,02,17,05,55,0.40
2019,02,17,05,56,0.40
2019,02,17,05,57,0.40
2019,02,17,05,58,0.40
2019,02,17,05,59,0.40
2019,02,17,06,00,0.40
2019,02,17,06,01,0.40
2019,02,17,06,02,0.40
2019,02,17,06,03,0.40
2019,02,17,06,04,0.30
2019,02,17,06,05,0.30
2019,02,17,06,06,0.30
2019,02,17,06,07,0.30
2019,02,17,06,08,0.30
2019,02,17,06,09,0.30
2019,02,17,06,10,0.20
2019,02,17,06,11,0.20
2019,02,17,06,12,0.20
2019,02,17,06,13,0.20
2019,02,17,06,14,0.20
2019,02,17,06,15,0.20
2019,02,17,06,16,0.20
2019,02,17,06,17,0.20
2019,02,17,06,18,0.20
2019,02,17,06,19,0.10
2019,02,17,06,20,0.10
2019,02,17,06,21,0.10
2019,02,17,06,22,0.10
2019,02,17,06,23,0.00
2019,02,17,06,24,0.00
2019,02,17,06,25,0.00
2019,02,17,06,26,-0.10
2019,02,17,06,27,-0.10
2019,02,17,06,28,-0.20
2019,02,17,06,29,-0.20
2019,02,17,06,30,-0.20
2019,02,17,06,31,-0.20
2019,02,17,06,32,-0.30
2019,02,17,06,33,-0.30
2019,02,17,06,34,-0.40
2019,02,17,06,35,-0.40
2019,02,17,06,36,-0.40
2019,02,17,06,37,-0.50
2019,02,17,06,38,-0.50
2019,02,17,06,39,-0.60
2019,02,17,06,40,-0.60
2019,02,17,06,41,-0.70
2019,02,17,06,42,-0.70
2019,02,17,06,43,-0.70
2019,02,17,06,44,-0.80
2019,02,17,06,45,-0.80
2019,02,17,06,46,-0.90
2019,02,17,06,47,-0.90
2019,02,17,06,48,-1.00
2019,02,17,06,49,-1.00
2019,02,17,06,50,-1.10
2019,02,17,06,51,-1.10
2019,02,17,06,52,-1.10
2019,02,17,06,53,-1.10
2019,02,17,06,54,-1.10
2019,02,17,06,55,-1.10
2019,02,17,06,56,-1.20
2019,02,17,06,57,-1.10
2019,02,17,06,58,-1.10
2019,02,17,06,59,-1.10
2019,02,17,07,00,-1.10
2019,02,17,07,01,-1.20
2019,02,17,07,02,-1.20
2019,02,17,07,03,-1.20
2019,02,17,07,04,-1.30
2019,02,17,07,05,-1.30
2019,02,17,07,06,-1.30
2019,02,17,07,07,-1.40
2019,02,17,07,08,-1.40
2019,02,17,07,09,-1.40
2019,02,17,07,10,-1.40
2019,02,17,07,11,-1.50
2019,02,17,07,12,-1.50
2019,02,17,07,13,-1.50
2019,02,17,07,14,-1.50
2019,02,17,07,15,-1.50
2019,02,17,07,16,-1.50
2019,02,17,07,17,-1.50
2019,02,17,07,18,-1.40
2019,02,17,07,19,-1.40
2019,02,17,07,20,-1.40
2019,02,17,07,21,-1.40
2019,02,17,07,22,-1.40
2019,02,17,07,23,-1.30
2019,02,17,07,24,-1.30
2019,02,17,07,25,-1.30
2019,02,17,07,26,-1.30
2019,02,17,07,27,-1.20
2019,02,17,07,28,-1.20
2019,02,17,07,29,-1.20
2019,02,17,07,30,-1.20
2019,02,17,07,31,-1.30
2019,02,17,07,32,-1.30
2019,02,17,07,33,-1.30
2019,02,17,07,34,-1.30
2019,02,17,07,35,-1.40
2019,02,17,07,36,-1.40
2019,02,17,07,37,-1.40
2019,02,17,07,38,-1.40
2019,02,17,07,39,-1.40
2019,02,17,07,40,-1.30
2019,02,17,07,41,-1.30
2019,02,17,07,42,-1.30
2019,02,17,07,43,-1.30
2019,02,17,07,44,-1.30
2019,02,17,07,45,-1.30
2019,02,17,07,46,-1.20
2019,02,17,07,47,-1.20
2019,02,17,07,48,-1.10
2019,02,17,07,49,-1.00
2019,02,17,07,50,-0.80
2019,02,17,07,51,-0.70
2019,02,17,07,52,-0.60
2019,02,17,07,53,-0.50
2019,02,17,07,54,-0.40
2019,02,17,07,55,-0.40
2019,02,17,07,56,-0.30
2019,02,17,07,57,-0.30
2019,02,17,07,58,-0.30
2019,02,17,07,59,-0.20
2019,02,17,08,00,-0.20
2019,02,17,08,01,-0.20
2019,02,17,08,02,-0.20
2019,02,17,08,03,-0.20
2019,02,17,08,04,-0.10
2019,02,17,08,05,-0.10
2019,02,17,08,06,0.00
2019,02,17,08,07,0.00
2019,02,17,08,08,0.00
2019,02,17,08,09,0.00
2019,02,17,08,10,0.10
2019,02,17,08,11,0.10
2019,02,17,08,12,0.10
2019,02,17,08,13,0.10
2019,02,17,08,14,0.10
2019,02,17,08,15,0.10
2019,02,17,08,16,0.20
2019,02,17,08,17,0.20
2019,02,17,08,18,0.20
2019,02,17,08,19,0.20
2019,02,17,08,20,0.20
2019,02,17,08,21,0.30
2019,02,17,08,22,0.30
2019,02,17,08,23,0.30
2019,02,17,08,24,0.30
2019,02,17,08,25,0.40
2019,02,17,08,26,0.40
2019,02,17,08,27,0.50
2019,02,17,08,28,0.50
2019,02,17,08,29,0.40
2019,02,17,08,30,0.40
2019,02,17,08,31,0.30
2019,02,17,08,32,0.30
2019,02,17,08,33,0.30
2019,02,17,08,34,0.30
2019,02,17,08,35,0.30
2019,02,17,08,36,0.20
2019,02,17,08,37,0.20
2019,02,17,08,38,0.20
2019,02,17,08,39,0.20
2019,02,17,08,40,0.20
2019,02,17,08,41,0.20
2019,02,17,08,42,0.20
2019,02,17,08,43,0.20
2019,02,17,08,44,0.20
2019,02,17,08,45,0.20
2019,02,17,08,46,0.20
2019,02,17,08,47,0.30
2019,02,17,08,48,0.30
2019,02,17,08,49,0.30
2019,02,17,08,50,0.30
2019,02,17,08,51,0.40
2019,02,17,08,52,0.40
2019,02,17,08,53,0.40
2019,02,17,08,54,0.50
2019,02,17,08,55,0.50
2019,02,17,08,56,0.60
2019,02,17,08,57,0.60
2019,02,17,08,58,0.70
2019,02,17,08,59,0.70
2019,02,17,09,00,0.80
2019,02,17,09,01,0.80
2019,02,17,09,02,0.90
2019,02,17,09,03,0.90
2019,02,17,09,04,1.00
2019,02,17,09,05,1.10
2019,02,17,09,06,1.10
2019,02,17,09,07,1.20
2019,02,17,09,08,1.20
2019,02,17,09,09,1.30
2019,02,17,09,10,1.30
2019,02,17,09,11,1.30
2019,02,17,09,12,1.40
2019,02,17,09,13,1.40
2019,02,17,09,14,1.50
2019,02,17,09,15,1.50
2019,02,17,09,16,1.60
2019,02,17,09,17,1.60
2019,02,17,09,18,1.60
2019,02,17,09,19,1.70
2019,02,17,09,20,1.70
2019,02,17,09,21,1.70
2019,02,17,09,22,1.80
2019,02,17,09,23,1.80
2019,02,17,09,24,1.80
2019,02,17,09,25,1.90
2019,02,17,09,26,1.90
2019,02,17,09,27,1.90
2019,02,17,09,28,2.00
2019,02,17,09,29,2.00
2019,02,17,09,30,2.10
2019,02,17,09,31,2.10
2019,02,17,09,32,2.10
2019,02,17,09,33,2.20
2019,02,17,09,34,2.20
2019,02,17,09,35,2.30
2019,02,17,09,36,2.30
2019,02,17,09,37,2.30
2019,02,17,09,38,2.40
2019,02,17,09,39,2.40
2019,02,17,09,40,2.50
2019,02,17,09,41,2.50
2019,02,17,09,42,2.60
2019,02,17,09,43,2.60
2019,02,17,09,44,2.60
2019,02,17,09,45,2.70
2019,02,17,09,46,2.70
2019,02,17,09,47,2.70
2019,02,17,09,48,2.80
2019,02,17,09,49,2.80
2019,02,17,09,50,2.80
2019,02,17,09,51,2.90
2019,02,17,09,52,2.90
2019,02,17,09,53,2.90
2019,02,17,09,54,3.00
2019,02,17,09,55,3.00
2019,02,17,09,56,3.00
2019,02,17,09,57,3.10
2019,02,17,09,58,3.10
2019,02,17,09,59,3.10
2019,02,17,10,00,3.20
2019,02,17,10,01,3.20
2019,02,17,10,02,3.30
2019,02,17,10,03,3.30
2019,02,17,10,04,3.40
2019,02,17,10,05,3.40
2019,02,17,10,06,3.50
2019,02,17,10,07,3.50
2019,02,17,10,08,3.60
2019,02,17,10,09,3.60
2019,02,17,10,10,3.60
2019,02,17,10,11,3.70
2019,02,17,10,12,3.70
2019,02,17,10,13,3.70
2019,02,17,10,14,3.70
2019,02,17,10,15,3.80
2019,02,17,10,16,3.80
2019,02,17,10,17,3.80
2019,02,17,10,18,3.80
2019,02,17,10,19,3.90
2019,02,17,10,20,3.90
2019,02,17,10,21,3.90
2019,02,17,10,22,4.00
2019,02,17,10,23,4.00
2019,02,17,10,24,4.00
2019,02,17,10,25,4.10
2019,02,17,10,26,4.10
2019,02,17,10,27,4.20
2019,02,17,10,28,4.20
2019,02,17,10,29,4.20
2019,02,17,10,30,4.20
2019,02,17,10,31,4.30
2019,02,17,10,32,4.30
2019,02,17,10,33,4.30
2019,02,17,10,34,4.40
2019,02,17,10,35,4.40
2019,02,17,10,36,4.40
2019,02,17,10,37,4.40
2019,02,17,10,38,4.40
2019,02,17,10,39,4.40
2019,02,17,10,40,4.50
2019,02,17,10,41,4.50
2019,02,17,10,42,4.50
2019,02,17,10,43,4.60
2019,02,17,10,44,4.60
2019,02,17,10,45,4.60
2019,02,17,10,46,4.60
2019,02,17,10,47,4.60
2019,02,17,10,48,4.60
2019,02,17,10,49,4.70
2019,02,17,10,50,4.70
2019,02,17,10,51,4.70
2019,02,17,10,52,4.70
2019,02,17,10,53,4.80
2019,02,17,10,54,4.80
2019,02,17,10,55,4.80
2019,02,17,10,56,4.90
2019,02,17,10,57,4.90
2019,02,17,10,58,4.90
2019,02,17,10,59,4.90
2019,02,17,11,00,4.90
2019,02,17,11,01,4.90
2019,02,17,11,02,4.90
2019,02,17,11,03,4.90
2019,02,17,11,04,4.90
2019,02,17,11,05,4.90
2019,02,17,11,06,4.90
2019,02,17,11,07,4.90
2019,02,17,11,08,4.90
2019,02,17,11,09,4.90
2019,02,17,11,10,4.90
2019,02,17,11,11,4.90
2019,02,17,11,12,4.90
2019,02,17,11,13,4.90
2019,02,17,11,14,4.90
2019,02,17,11,15,4.90
2019,02,17,11,16,4.90
2019,02,17,11,17,4.90
2019,02,17,11,18,4.90
2019,02,17,11,19,4.90
2019,02,17,11,20,5.00
2019,02,17,11,21,5.00
2019,02,17,11,22,5.00
2019,02,17,11,23,5.00
2019,02,17,11,24,5.00
2019,02,17,11,25,5.00
2019,02,17,11,26,5.10
2019,02,17,11,27,5.10
2019,02,17,11,28,5.10
2019,02,17,11,29,5.10
2019,02,17,11,30,5.10
2019,02,17,11,31,5.10
2019,02,17,11,32,5.20
2019,02,17,11,33,5.20
2019,02,17,11,34,5.20
2019,02,17,11,35,5.20
2019,02,17,11,36,5.20
2019,02,17,11,37,5.20
2019,02,17,11,38,5.20
2019,02,17,11,39,5.20
2019,02,17,11,40,5.30
2019,02,17,11,41,5.30
2019,02,17,11,42,5.30
2019,02,17,11,43,5.30
2019,02,17,11,44,5.30
2019,02,17,11,45,5.30
2019,02,17,11,46,5.30
2019,02,17,11,47,5.30
2019,02,17,11,48,5.30
2019,02,17,11,49,5.30
2019,02,17,11,50,5.40
2019,02,17,11,51,5.40
2019,02,17,11,52,5.40
2019,02,17,11,53,5.40
2019,02,17,11,54,5.50
2019,02,17,11,55,5.50
2019,02,17,11,56,5.50
2019,02,17,11,57,5.50
2019,02,17,11,58,5.60
2019,02,17,11,59,5.60
2019,02,17,12,00,5.60
2019,02,17,12,01,5.60
2019,02,17,12,02,5.70
2019,02,17,12,03,5.70
2019,02,17,12,04,5.70
2019,02,17,12,05,5.70
2019,02,17,12,06,5.70
2019,02,17,12,07,5.70
2019,02,17,12,08,5.70
2019,02,17,12,09,5.70
2019,02,17,12,10,5.70
2019,02,17,12,11,5.80
2019,02,17,12,12,5.80
2019,02,17,12,13,5.80
2019,02,17,12,14,5.80
2019,02,17,12,15,5.70
2019,02,17,12,16,5.70
2019,02,17,12,17,5.70
2019,02,17,12,18,5.70
2019,02,17,12,19,5.70
2019,02,17,12,20,5.70
2019,02,17,12,21,5.70
2019,02,17,12,22,5.70
2019,02,17,12,23,5.80
2019,02,17,12,24,5.80
2019,02,17,12,25,5.80
2019,02,17,12,26,5.80
2019,02,17,12,27,5.80
2019,02,17,12,28,5.90
2019,02,17,12,29,5.90
2019,02,17,12,30,5.90
2019,02,17,12,31,5.90
2019,02,17,12,32,5.90
2019,02,17,12,33,5.90
2019,02,17,12,34,5.90
2019,02,17,12,35,5.90
2019,02,17,12,36,5.90
2019,02,17,12,37,5.90
2019,02,17,12,38,6.00
2019,02,17,12,39,6.00
2019,02,17,12,40,6.00
2019,02,17,12,41,6.00
2019,02,17,12,42,6.00
2019,02,17,12,43,6.10
2019,02,17,12,44,6.10
2019,02,17,12,45,6.10
2019,02,17,12,46,6.10
2019,02,17,12,47,6.10
2019,02,17,12,48,6.20
2019,02,17,12,49,6.20
2019,02,17,12,50,6.20
2019,02,17,12,51,6.20
2019,02,17,12,52,6.20
2019,02,17,12,53,6.30
2019,02,17,12,54,6.30
2019,02,17,12,55,6.30
2019,02,17,12,56,6.30
2019,02,17,12,57,6.30
2019,02,17,12,58,6.30
2019,02,17,12,59,6.30
2019,02,17,13,00,6.30
2019,02,17,13,01,6.40
2019,02,17,13,02,6.40
2019,02,17,13,03,6.30
2019,02,17,13,04,6.30
2019,02,17,13,05,6.30
2019,02,17,13,06,6.40
2019,02,17,13,07,6.40
2019,02,17,13,08,6.40
2019,02,17,13,09,6.50
2019,02,17,13,10,6.40
2019,02,17,13,11,6.40
2019,02,17,13,12,6.40
2019,02,17,13,13,6.40
2019,02,17,13,14,6.40
2019,02,17,13,15,6.40
2019,02,17,13,16,6.50
2019,02,17,13,17,6.40
2019,02,17,13,18,6.40
2019,02,17,13,19,6.50
2019,02,17,13,20,6.50
2019,02,17,13,21,6.60
2019,02,17,13,22,6.60
2019,02,17,13,23,6.60
2019,02,17,13,24,6.60
2019,02,17,13,25,6.60
2019,02,17,13,26,6.50
2019,02,17,13,27,6.50
2019,02,17,13,28,6.50
2019,02,17,13,29,6.60
2019,02,17,13,30,6.60
2019,02,17,13,31,6.60
2019,02,17,13,32,6.60
2019,02,17,13,33,6.60
2019,02,17,13,34,6.60
2019,02,17,13,35,6.60
2019,02,17,13,36,6.60
2019,02,17,13,37,6.60
2019,02,17,13,38,6.60
2019,02,17,13,39,6.60
2019,02,17,13,40,6.60
2019,02,17,13,41,6.50
2019,02,17,13,42,6.60
2019,02,17,13,43,6.50
2019,02,17,13,44,6.50
2019,02,17,13,45,6.50
2019,02,17,13,46,6.50
2019,02,17,13,47,6.50
2019,02,17,13,48,6.50
2019,02,17,13,49,6.50
2019,02,17,13,50,6.50
2019,02,17,13,51,6.50
2019,02,17,13,52,6.50
2019,02,17,13,53,6.60
2019,02,17,13,54,6.60
2019,02,17,13,55,6.60
2019,02,17,13,56,6.60
2019,02,17,13,57,6.60
2019,02,17,13,58,6.70
2019,02,17,13,59,6.70
2019,02,17,14,00,6.60
2019,02,17,14,01,6.60
2019,02,17,14,02,6.60
2019,02,17,14,03,6.60
2019,02,17,14,04,6.60
2019,02,17,14,05,6.60
2019,02,17,14,06,6.60
2019,02,17,14,07,6.60
2019,02,17,14,08,6.70
2019,02,17,14,09,6.70
2019,02,17,14,10,6.70
2019,02,17,14,11,6.70
2019,02,17,14,12,6.70
2019,02,17,14,13,6.70
2019,02,17,14,14,6.70
2019,02,17,14,15,6.70
2019,02,17,14,16,6.80
2019,02,17,14,17,6.80
2019,02,17,14,18,6.80
2019,02,17,14,19,6.80
2019,02,17,14,20,6.80
2019,02,17,14,21,6.80
2019,02,17,14,22,6.80
2019,02,17,14,23,6.80
2019,02,17,14,24,6.80
2019,02,17,14,25,6.80
2019,02,17,14,26,6.80
2019,02,17,14,27,6.90
2019,02,17,14,28,6.90
2019,02,17,14,29,6.90
2019,02,17,14,30,6.90
2019,02,17,14,31,6.90
2019,02,17,14,32,6.90
2019,02,17,14,33,6.90
2019,02,17,14,34,6.90
2019,02,17,14,35,6.90
2019,02,17,14,36,6.90
2019,02,17,14,37,7.00
2019,02,17,14,38,7.00
2019,02,17,14,39,7.00
2019,02,17,14,40,7.00
2019,02,17,14,41,7.00
2019,02,17,14,42,6.90
2019,02,17,14,43,6.90
2019,02,17,14,44,7.00
2019,02,17,14,45,7.00
2019,02,17,14,46,7.10
2019,02,17,14,47,7.10
2019,02,17,14,48,7.20
2019,02,17,14,49,7.20
2019,02,17,14,50,7.20
2019,02,17,14,51,7.20
2019,02,17,14,52,7.20
2019,02,17,14,53,7.20
2019,02,17,14,54,7.20
2019,02,17,14,55,7.20
2019,02,17,14,56,7.10
2019,02,17,14,57,7.10
2019,02,17,14,58,7.10
2019,02,17,14,59,7.10
2019,02,17,15,00,7.00
2019,02,17,15,01,7.00
2019,02,17,15,02,7.00
2019,02,17,15,03,7.00
2019,02,17,15,04,7.10
2019,02,17,15,05,7.10
2019,02,17,15,06,7.10
2019,02,17,15,07,7.10
2019,02,17,15,08,7.10
2019,02,17,15,09,7.10
2019,02,17,15,10,7.00
2019,02,17,15,11,7.00
2019,02,17,15,12,6.90
2019,02,17,15,13,6.90
2019,02,17,15,14,6.90
2019,02,17,15,15,6.90
2019,02,17,15,16,6.80
2019,02,17,15,17,6.90
2019,02,17,15,18,6.90
2019,02,17,15,19,6.90
2019,02,17,15,20,6.90
2019,02,17,15,21,6.90
2019,02,17,15,22,6.90
2019,02,17,15,23,6.90
2019,02,17,15,24,6.90
2019,02,17,15,25,6.90
2019,02,17,15,26,6.90
2019,02,17,15,27,6.90
2019,02,17,15,28,6.90
2019,02,17,15,29,6.90
2019,02,17,15,30,6.90
2019,02,17,15,31,6.90
2019,02,17,15,32,6.90
2019,02,17,15,33,6.90
2019,02,17,15,34,6.90
2019,02,17,15,35,6.90
2019,02,17,15,36,7.00
2019,02,17,15,37,7.10
2019,02,17,15,38,7.20
2019,02,17,15,39,7.30
2019,02,17,15,40,7.30
2019,02,17,15,41,7.30
2019,02,17,15,42,7.30
2019,02,17,15,43,7.30
2019,02,17,15,44,7.30
2019,02,17,15,45,7.30
2019,02,17,15,46,7.20
2019,02,17,15,47,7.10
2019,02,17,15,48,7.10
2019,02,17,15,49,7.00
2019,02,17,15,50,7.00
2019,02,17,15,51,6.90
2019,02,17,15,52,6.90
2019,02,17,15,53,6.90
2019,02,17,15,54,7.00
2019,02,17,15,55,7.00
2019,02,17,15,56,7.00
2019,02,17,15,57,7.10
2019,02,17,15,58,7.20
2019,02,17,15,59,7.30
2019,02,17,16,00,7.40
2019,02,17,16,01,7.40
2019,02,17,16,02,7.40
2019,02,17,16,03,7.40
2019,02,17,16,04,7.30
2019,02,17,16,05,7.30
2019,02,17,16,06,7.30
2019,02,17,16,07,7.30
2019,02,17,16,08,7.20
2019,02,17,16,09,7.20
2019,02,17,16,10,7.20
2019,02,17,16,11,7.10
2019,02,17,16,12,7.10
2019,02,17,16,13,7.10
2019,02,17,16,14,7.10
2019,02,17,16,15,7.10
2019,02,17,16,16,7.10
2019,02,17,16,17,7.20
2019,02,17,16,18,7.20
2019,02,17,16,19,7.10
2019,02,17,16,20,7.10
2019,02,17,16,21,7.10
2019,02,17,16,22,7.10
2019,02,17,16,23,7.10
2019,02,17,16,24,7.00
2019,02,17,16,25,7.00
2019,02,17,16,26,7.00
2019,02,17,16,27,6.90
2019,02,17,16,28,6.90
2019,02,17,16,29,6.90
2019,02,17,16,30,6.80
2019,02,17,16,31,6.80
2019,02,17,16,32,6.70
2019,02,17,16,33,6.70
2019,02,17,16,34,6.60
2019,02,17,16,35,6.60
2019,02,17,16,36,6.50
2019,02,17,16,37,6.50
2019,02,17,16,38,6.50
2019,02,17,16,39,6.40
2019,02,17,16,40,6.40
2019,02,17,16,41,6.40
2019,02,17,16,42,6.40
2019,02,17,16,43,6.30
2019,02,17,16,44,6.30
2019,02,17,16,45,6.30
2019,02,17,16,46,6.30
2019,02,17,16,47,6.20
2019,02,17,16,48,6.20
2019,02,17,16,49,6.20
2019,02,17,16,50,6.20
2019,02,17,16,51,6.20
2019,02,17,16,52,6.20
2019,02,17,16,53,6.20
2019,02,17,16,54,6.20
2019,02,17,16,55,6.10
2019,02,17,16,56,6.10
2019,02,17,16,57,6.10
2019,02,17,16,58,6.10
2019,02,17,16,59,6.00
2019,02,17,17,00,6.00
2019,02,17,17,01,6.00
2019,02,17,17,02,6.00
2019,02,17,17,03,5.90
2019,02,17,17,04,5.90
2019,02,17,17,05,5.90
2019,02,17,17,06,5.90
2019,02,17,17,07,5.90
2019,02,17,17,08,5.90
2019,02,17,17,09,5.90
2019,02,17,17,10,5.80
2019,02,17,17,11,5.80
2019,02,17,17,12,5.80
2019,02,17,17,13,5.80
2019,02,17,17,14,5.80
2019,02,17,17,15,5.80
2019,02,17,17,16,5.80
2019,02,17,17,17,5.80
2019,02,17,17,18,5.80
2019,02,17,17,19,5.80
2019,02,17,17,20,5.80
2019,02,17,17,21,5.80
2019,02,17,17,22,5.80
2019,02,17,17,23,5.80
2019,02,17,17,24,5.80
2019,02,17,17,25,5.80
2019,02,17,17,26,5.80
2019,02,17,17,27,5.90
2019,02,17,17,28,5.90
2019,02,17,17,29,5.80
2019,02,17,17,30,5.80
2019,02,17,17,31,5.80
2019,02,17,17,32,5.80
2019,02,17,17,33,5.80
2019,02,17,17,34,5.80
2019,02,17,17,35,5.70
2019,02,17,17,36,5.70
2019,02,17,17,37,5.70
2019,02,17,17,38,5.70
2019,02,17,17,39,5.60
2019,02,17,17,40,5.60
2019,02,17,17,41,5.60
2019,02,17,17,42,5.50
2019,02,17,17,43,5.50
2019,02,17,17,44,5.40
2019,02,17,17,45,5.40
2019,02,17,17,46,5.30
2019,02,17,17,47,5.30
2019,02,17,17,48,5.20
2019,02,17,17,49,5.20
2019,02,17,17,50,5.20
2019,02,17,17,51,5.20
2019,02,17,17,52,5.20
2019,02,17,17,53,5.10
2019,02,17,17,54,4.70
2019,02,17,17,55,4.70
2019,02,17,17,56,4.60
2019,02,17,17,57,4.50
2019,02,17,17,58,4.50
2019,02,17,17,59,4.40
2019,02,17,18,00,4.40
2019,02,17,18,01,4.30
2019,02,17,18,02,4.30